This demonstration page uses our WeatherBlox Daily Observations layout. Learn more.

Left ArrowRight Arrow

Hourly Observations for July 30, 2021

Temp ( °F °C ) Dew Point ( °F °C ) Humidity (%) Winds ( mph kmh ) Pressure ( in mb ) Visibility ( mi km ) Precip ( " mm )
12:33 am 00:33 Mostly Cloudy with Mist and Fog 73 23 73 23 100 100 E 6 9 30.03 1017 6 10 0.00 0.00
12:56 am 00:56 Cloudy with Mist and Fog 75 23.9 73 22.8 94 94 E 8 13 30.06 1018 6 10 0.00 0.00
1:56 am 01:56 Cloudy 75 23.9 73 22.8 94 94 E 9 15 30.05 1018 7 11 0.00 0.00
2:56 am 02:56 Cloudy with Mist and Fog 74 23.3 72 22.2 94 94 E 7 11 30.04 1017 6 10 0.00 0.00
3:14 am 03:14 Cloudy with Mist and Fog 73 23 72 22 94 94 E 6 9 30.01 1016 5 8 0.00 0.00
3:56 am 03:56 Cloudy with Mist and Fog 74 23.3 73 22.8 97 97 E 7 11 30.04 1017 4 6 0.00 0.00
4:14 am 04:14 Cloudy with Mist and Fog 73 23 73 23 100 100 ENE 8 13 30.02 1017 4 6 0.00 0.00
4:56 am 04:56 Cloudy with Mist and Fog 74 23.3 73 22.8 97 97 E 10 17 30.05 1018 4 6 0.00 0.00
5:21 am 05:21 Cloudy with Mist and Fog 73 23 73 23 100 100 E 9 15 30.02 1017 3 4 0.00 0.00
5:56 am 05:56 Cloudy with Mist and Fog 74 23.3 73 22.8 97 97 ESE 9 15 30.05 1018 2 3 0.00 0.00
6:35 am 06:35 Cloudy with Mist and Fog 73 23 73 23 100 100 ESE 12 19 30.01 1016 1 2 0.00 0.00
6:56 am 06:56 Cloudy with Mist and Fog 74 23.3 73 22.8 97 97 ESE 9 15 30.05 1018 2 2 0.00 0.00
7:25 am 07:25 Cloudy with Mist and Fog 73 23 73 23 100 100 ESE 12 19 30.01 1016 3 4 0.00 0.00
7:36 am 07:36 Cloudy with Mist and Fog 75 24 73 23 94 94 ESE 9 15 30.02 1016 3 5 0.00 0.00
7:56 am 07:56 Cloudy with Mist and Fog 75 23.9 73 22.8 94 94 SE 10 17 30.05 1018 4 6 0.00 0.00
8:24 am 08:24 Cloudy with Mist and Fog 75 24 73 23 94 94 SE 9 15 30.01 1016 6 10 0.00 0.00
8:56 am 08:56 Cloudy 76 24.4 73 22.8 91 91 SE 9 15 30.05 1018 7 11 0.00 0.00
9:56 am 09:56 Cloudy 79 26.1 74 23.3 85 85 VRB 6 9 30.05 1018 8 13 0.00 0.00
10:04 am 10:04 Cloudy 79 26 73 23 84 84 SE 7 11 29.98 1015 8 13 0.00 0.00
10:56 am 10:56 Mostly Cloudy 82 27.8 75 23.9 79 79 ESE 6 9 30.04 1017 10 16 0.00 0.00
11:16 am 11:16 Partly Cloudy 82 28 75 24 79 79 VRB 5 7 29.97 1015 8 13 0.00 0.00
11:56 am 11:56 Mostly Sunny 85 29.4 76 24.4 75 75 ESE 7 11 30.04 1017 10 16 0.00 0.00
12:20 pm 12:20 Mostly Cloudy 84 29 75 24 74 74 ENE 7 11 29.97 1015 10 16 0.00 0.00
12:41 pm 12:41 Partly Cloudy 84 29 75 24 74 74 ENE 9 15 29.96 1015 10 16 0.00 0.00
12:56 pm 12:56 Mostly Cloudy 84 28.9 76 24.4 77 77 ENE 12 19 30.04 1017 10 16 0.00 0.00
1:20 pm 13:20 Partly Cloudy 84 29 75 24 74 74 ENE 10 17 29.96 1015 10 16 0.00 0.00
1:56 pm 13:56 Partly Cloudy 83 28.3 76 24.4 79 79 NE 17 28 30.04 1017 9 14 0.00 0.00
2:06 pm 14:06 Mostly Cloudy 82 28 75 24 79 79 NE 14 22 29.97 1015 7 11 0.00 0.00
2:37 pm 14:37 Partly Cloudy 82 28 75 24 79 79 ENE 12 19 29.96 1014 8 13 0.00 0.00
2:56 pm 14:56 Sunny 83 28.3 76 24.4 79 79 E 12 19 30.02 1017 8 13 0.00 0.00
3:56 pm 15:56 Sunny 87 30.6 78 25.6 75 75 ENE 10 17 29.99 1016 9 14 0.00 0.00
4:56 pm 16:56 Mostly Sunny 89 31.7 79 26.1 72 72 E 10 17 29.98 1015 10 16 0.00 0.00
5:56 pm 17:56 Sunny 88 31.1 79 26.1 75 75 E 12 19 29.96 1015 10 16 0.00 0.00
6:56 pm 18:56 Sunny 88 31.1 80 26.7 77 77 ESE 12 19 29.94 1014 10 16 0.00 0.00
7:56 pm 19:56 Mostly Sunny 86 30 79 26.1 80 80 E 8 13 29.95 1014 10 16 0.00 0.00
8:56 pm 20:56 Clear 81 27.2 78 25.6 91 91 ENE 7 11 29.94 1014 10 16 0.00 0.00
9:56 pm 21:56 Clear 80 26.7 78 25.6 94 94 ENE 13 20 29.95 1014 7 11 0.00 0.00
10:41 pm 22:41 Partly Cloudy with Mist and Fog 77 25 75 24 94 94 ENE 10 17 29.92 1013 4 6 0.00 0.00
10:56 pm 22:56 Mostly Cloudy with Mist and Fog 77 25 76 24.4 96 96 ENE 12 19 29.96 1015 4 6 0.00 0.00
11:56 pm 23:56 Cloudy with Mist and Fog 76 24.4 74 23.3 94 94 NE 9 15 29.98 1015 4 6 0.00 0.00

Powered by AerisWeather